Regional Weather Roundup
Issued by NWS Jackson, KY

Home | Current Version | Previous Version | Graphics & Text | Print | Product List | Glossary On
Versions: 1 2 3 4 5 6 7 8 9 10 11 12 13 14 15 16 17 18 19 20 21 22 23 24 25 26 27 28
000
ASUS43 KJKL 280410
RWRJKL

EAST KENTUCKY HOURLY WEATHER ROUNDUP
NATIONAL WEATHER SERVICE JACKSON KY
1200 AM EDT SUN AUG 28 2016

NOTE: "FAIR" INDICATES FEW OR NO CLOUDS BELOW 12,000 FEET WITH
NO SIGNIFICANT WEATHER AND/OR OBSTRUCTIONS TO VISIBILITY.

* THESE REPORTS ARE NOT UNDER NWS QUALITY CONTROL AND MAY NOT
  REPORT WEATHER SUCH AS PRECIPITATION AND FOG.

KYZ079-080-083-085-087-088-110-112-115-119-120-280500
...EASTERN KENTUCKY...

CITY           SKY/WX    TMP DP  RH WIND       PRES   REMARKS
JACKSON        CLOUDY    78  73  84 CALM      30.18R
LONDON         CLOUDY    75  69  81 E3        30.17S
SOMERSET*      MOCLDY    73  66  78 CALM      30.15F
WILLIAMSBURG*  CLOUDY    72  72 100 CALM      30.16F
MIDDLESBORO*   PTCLDY    69  69  99 CALM      30.21S
HARLAN APT*    CLOUDY    72  66  83 CALM      30.22S
PIKE CO APT*     N/A     78  73  85 SE3       30.19R
BIG SANDY APT* MOCLDY    77  73  87 CALM      30.17R
MOREHEAD APT*  PTCLDY    75  70  83 CALM      30.18R
$$

KYZ035-036-041-042-044-050-067-078-099-280500
...CENTRAL KENTUCKY...

CITY           SKY/WX    TMP DP  RH WIND       PRES   REMARKS
MT STERLING*   MOCLDY    75  72  88 SE5       30.17S
FLEMING/MASON* MOCLDY    72  71  96 CALM      30.17R
DANVILLE*      CLOUDY    72  70  94 N3        30.16S
LEXINGTON      MOCLDY    76  71  85 CALM      30.16R
FRANKFORT      CLEAR     77  71  82 CALM      30.14R
LOUISVILLE     MOCLDY    81  71  71 CALM      30.13R
LEBANON*         N/A     75  72  88 E3        30.15R
GLASGOW*       PTCLDY    73  73 100 N3        30.14R
BOWLING GREEN  PTCLDY    78  72  81 SE3       30.13R
$$

KYZ091>093-OHZ055-061-077-WVZ005-015-034-035-042-280500
...SOUTHERN OHIO/WEST VIRGINIA...

CITY           SKY/WX    TMP DP  RH WIND       PRES   REMARKS
COVINGTON      MOCLDY    75  72  90 CALM      30.15S
COLUMBUS       MOCLDY    71  68  90 CALM      30.15R
DAYTON         CLOUDY    73  69  87 CALM      30.17S
WILMINGTON     CLEAR     69  68  96 NE6       30.16S
HUNTINGTON     PTCLDY    78  70  76 CALM      30.14S
CHARLESTON     MOCLDY    75  72  90 CALM      30.16R
PINEVILLE*     MOCLDY    73  68  86 MISG      30.28S HAZE
BECKLEY        CLOUDY    75  66  73 S7        30.28R
BLUEFIELD      PTCLDY    74  65  73 E5        30.31S
LOGAN CO APT*    N/A     77  73  88 CALM      30.19S
$$

VAZ002-007-008-TNZ017-027-036-066-071-280500
...SOUTHWEST VIRGINIA/EAST TENNESSEE...

CITY           SKY/WX    TMP DP  RH WIND       PRES   REMARKS
WISE*          LGT RAIN  73  54  49 SE5       30.29S
JONESVILLE*      N/A     75  72  88 CALM      30.22F
ABINGDON*      CLOUDY    76  72  89 CALM      30.25S
BRISTOL        CLOUDY    75  70  84 N3        30.22R
MORRISTOWN*    PTCLDY    75  68  78 CALM      30.18F
SEVIERVILLE*   PTCLDY    72  70  94 CALM      30.18R
KNOXVILLE      PTCLDY    73  70  90 NE3       30.16R
OAK RIDGE      PTCLDY    75  70  84 NE3       30.18S
CROSSVILLE     CLEAR     74  70  87 CALM      30.21R
NASHVILLE      PTCLDY    75  72  90 N3        30.13R
$$

...KEY TO REMARKS...
VSB - VISIBILITY IN MILES
WCI - WIND CHILL INDEX
HX  - HEAT INDEX

$$




USA.gov is the U.S. government's official web portal to all federal, state and local government web resources and services.